Simultaneous Nadir Overpasses (SNOs) Predictions

Prediction of SNOs between METOP-A and TERRA Satellite Orbit:

Table of predicted SNOs for the next 14.0 days since TLE Epoch: 8/7/2021
Index Date (METOP-A) Time (METOP-A) Lat,Lon (METOP-A) SZA (METOP-A ) Date (TERRA) Time (TERRA) Lat,Lon (TERRA) SZA (TERRA ) Distance(km) Time Diff (sec)
1 08/08/2021 10:07:13 81.29, 73.40 67.78 08/08/2021 10:07:30 81.28, 73.51 67.79 2.42 17
2 08/08/2021 10:57:53 -81.29,-119.10 112.20 08/08/2021 10:56:57 -81.27,-118.96 112.22 2.82 56
3 08/11/2021 05:41:33 81.28, 140.06 68.62 08/11/2021 05:41:42 81.29, 140.09 68.63 0.79 9
4 08/11/2021 06:32:13 -81.27, -52.41 111.35 08/11/2021 06:31:09 -81.28, -52.36 111.37 1.32 64
5 08/14/2021 00:25:19 -81.37, 36.73 110.73 08/14/2021 00:26:33 -81.18, 37.07 110.79 21.78 74
6 08/14/2021 01:15:54 81.28,-153.68 69.47 08/14/2021 01:15:55 81.27,-153.75 69.45 1.88 1
7 08/14/2021 02:06:34 -81.27, 13.89 110.50 08/14/2021 02:05:22 -81.27, 13.83 110.55 1.18 72
8 08/16/2021 19:59:33 -81.28, 105.30 109.66 08/16/2021 20:00:39 -81.29, 105.46 109.61 2.85 66
9 08/16/2021 20:50:13 81.27, -87.05 70.38 08/16/2021 20:50:06 81.27, -87.24 70.36 3.24 7
10 08/19/2021 15:33:54 -81.29, 171.56 108.76 08/19/2021 15:34:52 -81.28, 171.58 108.74 1.32 58



Historial Predications of SNOs between METOP-A and TERRA
